カタログに戻る

BY70-4

運用中アマチュア無線SSO
NORAD 98247·PAYLOAD·🇨🇳 China

打ち上げ Aug 25, 2026 から Taiyuan Satellite Launch Center

Loading…

次のパス (今後24時間)

TLE

最新Source: SatNOGS

元期: Sep 13, 2026, 22:28 UTC

1 98247U 26195E   26256.93647062  .00003471  00000-0  21851-3 0  9996
2 98247  97.5354 330.4116 0011955 197.5286 162.5532 15.09791232  2995

AllMySatでBY70-4をリアルタイム追跡

Download on the App Store